Regional Weather Roundup
Issued by NWS

Home | Current Version | Previous Version | Graphics & Text | Print | Product List | Glossary On
Versions: 1 2 3 4 5 6 7 8 9 10 11 12 13 14 15 16 17 18 19 20 21 22 23 24 25 26 27 28 29 30 31 32 33 34 35 36 37 38 39 40 41 42 43 44 45 46 47 48 49 50
000
ASUS43 KLSX 152159
RWRMO

WEATHER SUMMARY FOR MISSOURI
NATIONAL WEATHER SERVICE SPRINGFIELD MO
500 PM CDT MON SEP 15 2014

NOTE: "FAIR" INDICATES FEW OR NO CLOUDS BELOW 12,000 FEET WITH NO
       SIGNIFICANT WEATHER AND/OR OBSTRUCTIONS TO VISIBILITY.
       CURRENT SKY AND/OR WEATHER CONDITIONS ARE NOT AVAILABLE FOR
       CHILLICOTHE AND FARMINGTON.

MOZ001>031-035>038-043-044-053-054-152300-
...NORTHERN AND WESTERN MISSOURI...

CITY           SKY/WX    TMP DP  RH WIND       PRES   REMARKS
KANSAS CTY INT CLOUDY    67  59  75 N15       30.15R
KANSAS C DTWN  CLOUDY    69  60  73 N6        30.14S
LEE`S SUMMIT   CLOUDY    68  61  78 N12       30.14S
ST JOSEPH      CLOUDY    65  54  67 N15       30.18R
KIRKSVILLE     CLOUDY    62  57  83 NW16      30.14R

$$
MOZ066>068-077>081-088>096-101>105-152300-
...SOUTHWEST MISSOURI...

CITY           SKY/WX    TMP DP  RH WIND       PRES   REMARKS
SPRINGFIELD    MOSUNNY   84  65  52 W15G23    30.08S
JOPLIN         MOSUNNY   84  67  56 SW14      30.08F

$$
MOZ032>034-039>042-045>050-055>058-069>072-152300-
...CENTRAL MISSOURI...

CITY           SKY/WX    TMP DP  RH WIND       PRES   REMARKS
COLUMBIA       CLOUDY    68  63  84 NW14      30.09R
JEFFERSON CITY CLOUDY    71  65  81 NW7       30.07R
ROLLA          CLOUDY    73  66  78 N14       30.07R
SEDALIA        CLOUDY    67  63  87 N9        30.11S
WHITEMAN AFB   PTSUNNY   67  63  85 N15       30.11S
OSAGE BEACH    CLOUDY    73  66  78 N7G16     30.08R

$$
MOZ051-052-059>065-152300-
...EAST CENTRAL MISSOURI...

CITY           SKY/WX    TMP DP  RH WIND       PRES   REMARKS
ST LOUIS INTL  CLOUDY    71  67  87 W9        30.06S FOG
SPIRIT OF STL  LGT RAIN  69  67  93 VRB6      30.05S FOG
ST CHARLES     CLOUDY    68  67  96 CALM      30.05R FOG

$$
MOZ072>076-082>087-097>100-106>115-152300-
...SOUTH CENTRAL AND SOUTHEAST MISSOURI...

CITY           SKY/WX    TMP DP  RH WIND       PRES   REMARKS
CAPE GIRARDEAU MOSUNNY   77  64  64 SW12      30.06S
FARMINGTON     CLOUDY    77  68  73 CALM      30.07R
POPLAR BLUFF   MOSUNNY   74  62  66 SW12      30.06F
WEST PLAINS    SUNNY     79  66  64 SW8       30.10F

$$


USA.gov is the U.S. government's official web portal to all federal, state and local government web resources and services.